Tracking 29065 objects as of 22-Jul-2024
HD Live streaming from Space Station
objects crossing your sky now

COSMOS 397 DEB

Track COSMOS 397 DEB now!
10-day predictions


NORAD ID: 5018
Int'l Code: 1971-015M
Perigee: 581.5 km
Apogee: 2,115.0 km
Inclination: 65.7 °
Period: 112.5 minutes
Semi major axis: 7719 km
RCS: 0.1181 m2 (medium)
Launch date: February 25, 1971
Source: Commonwealth of Independent States (former USSR) (CIS)
Launch site: TYURATAM MISSILE AND SPACE COMPLEX (TTMTR)

Note: This is SATELLITE DEBRIS
Your satellite tracking list
Your tracking list is empty




NASA's NSSDC Master Catalog

Two Line Element Set (TLE):
1 05018U 71015M   24203.69400666  .00000174  00000-0  12146-3 0  9995
2 05018  65.7121 173.5221 0993304 130.0107 239.2476 12.80086630490054
Source of the keplerian elements: AFSPC